TimeCST,TemperatureF,Dew PointF,Humidity,Sea Level PressureIn,VisibilityMPH,Wind Direction,Wind SpeedMPH,Gust SpeedMPH,PrecipitationIn,Events,Conditions,WindDirDegrees,DateUTC
12:53 AM,30.0,23.0,75,30.05,10.0,West,5.8,-,N/A,,Clear,260,2012-11-29 06:53:00
1:53 AM,32.0,23.0,69,30.03,10.0,West,3.5,-,N/A,,Clear,260,2012-11-29 07:53:00
2:53 AM,30.0,23.0,75,30.03,10.0,West,4.6,-,N/A,,Clear,280,2012-11-29 08:53:00
3:53 AM,27.0,21.9,81,30.03,10.0,WNW,3.5,-,N/A,,Clear,290,2012-11-29 09:53:00
4:53 AM,25.0,19.9,81,30.01,10.0,Calm,Calm,-,N/A,,Clear,0,2012-11-29 10:53:00
5:53 AM,24.1,19.9,84,30.01,10.0,South,4.6,-,N/A,,Clear,170,2012-11-29 11:53:00
6:53 AM,21.9,18.0,85,30.01,10.0,South,5.8,-,N/A,,Clear,170,2012-11-29 12:53:00
7:53 AM,25.0,19.9,81,30.02,10.0,South,4.6,-,N/A,,Clear,180,2012-11-29 13:53:00
8:53 AM,26.1,21.0,81,30.04,10.0,WSW,4.6,-,N/A,,Clear,250,2012-11-29 14:53:00
9:53 AM,32.0,26.1,79,30.00,10.0,ESE,8.1,-,N/A,,Clear,120,2012-11-29 15:53:00
10:53 AM,39.0,28.9,67,29.98,10.0,ESE,8.1,-,N/A,,Clear,120,2012-11-29 16:53:00
11:53 AM,46.9,28.0,48,29.93,10.0,SSE,12.7,18.4,N/A,,Clear,160,2012-11-29 17:53:00
12:53 PM,51.1,28.0,41,29.89,10.0,SSE,15.0,-,N/A,,Clear,160,2012-11-29 18:53:00
1:53 PM,57.0,25.0,29,29.84,10.0,South,12.7,20.7,N/A,,Clear,170,2012-11-29 19:53:00
2:53 PM,55.9,26.1,32,29.84,10.0,SSW,11.5,-,N/A,,Clear,200,2012-11-29 20:53:00
3:53 PM,55.9,28.0,34,29.85,10.0,South,8.1,-,N/A,,Clear,170,2012-11-29 21:53:00
4:36 PM,50.0,26.6,40,29.83,10.0,NNW,28.8,34.5,N/A,,Clear,330,2012-11-29 22:36:00
4:53 PM,41.0,24.1,51,29.94,10.0,NW,21.9,31.1,N/A,,Clear,320,2012-11-29 22:53:00
5:53 PM,35.1,24.1,64,30.01,10.0,NNW,12.7,-,N/A,,Clear,330,2012-11-29 23:53:00
6:53 PM,28.9,21.9,75,30.05,10.0,NW,10.4,-,N/A,,Clear,310,2012-11-30 00:53:00
7:53 PM,26.1,19.9,78,30.08,10.0,WNW,10.4,-,N/A,,Clear,290,2012-11-30 01:53:00
8:53 PM,25.0,19.9,81,30.10,9.0,WNW,6.9,-,N/A,,Overcast,300,2012-11-30 02:53:00
9:53 PM,23.0,19.0,85,30.10,8.0,WNW,6.9,-,N/A,,Clear,300,2012-11-30 03:53:00
10:53 PM,21.0,19.0,92,30.09,7.0,NW,8.1,-,N/A,,Clear,310,2012-11-30 04:53:00
11:53 PM,19.9,18.0,92,30.10,7.0,West,6.9,-,N/A,,Clear,270,2012-11-30 05:53:00